Location: Shannon
(40.5500°S, 175.4167°E)
Time: 10:41:37
(UTC+00:00)

Cosmos 1805 Rocket - Pass Details

Date: 17 November 2025
Orbit: 600 x 622 km, 82.5° (Epoch: 09 December)

Event Time Altitude Azimuth Distance (km) Brightness Sun altitude
Exits shadow 13:32:21 60° 187° (S) 725 4.0 -26.8°
Drops below altitude 10° 13:36:05 10° 174° (S) 2,027 7.1 -26.5°
Sets 13:38:21 0° 173° (S) 2,941 8.2 -26.4°
